Regional Weather Roundup
Issued by NWS

Home | Current Version | Previous Version | Text Only | Print | Product List | Glossary Off
Versions: 1 2 3 4 5 6 7 8 9 10 11 12 13 14 15 16 17 18 19 20 21 22 23 24 25 26 27 28 29 30 31 32 33 34 35 36 37 38 39 40 41 42 43 44 45 46 47 48 49 50

000
ASUS43 KLOT 221506
RWRIL

ILLINOIS REGIONAL WEATHER ROUNDUP
NATIONAL WEATHER SERVICE CHICAGO/ROMEOVILLE IL
1000 AM CDT FRI AUG 22 2014

NOTE: "FAIR" INDICATES FEW OR NO CLOUDS BELOW 12,000 FEET WITH NO
SIGNIFICANT WEATHER AND/OR OBSTRUCTIONS TO VISIBILITY.

* THESE STATIONS ARE NOT UNDER NWS QUALITY CONTROL. THEY ALSO MAY NOT
  REPORT WEATHER SUCH AS PRECIPITATION OR FOG.

ILZ001-002-007-009-015-016-024-221600-
NORTHWEST ILLINOIS

CITY           SKY/WX    TMP DP  RH WIND       PRES   REMARKS
MOLINE         CLOUDY    73  70  90 CALM      29.95R
STERLING*      CLOUDY    73  70  88 W9G16     29.97R
SAVANNA*       CLOUDY    77  73  90 S6        29.94R
$$

ILZ003-004-008-010-011-017-018-221600-
NORTH CENTRAL ILLINOIS

CITY           SKY/WX    TMP DP  RH WIND       PRES   REMARKS
ROCKFORD       CLOUDY    78  73  84 SW8       29.97R HX  81
FREEPORT*      CLOUDY    77  75  92 S6        29.98R
ROCHELLE*      PTSUNNY   76  73  88 SW7       29.97R
DE KALB*       PTSUNNY   76  72  86 SW12      29.98R
PERU*          CLOUDY    75  72  89 W17G23    30.01R
$$

ILZ005-006-012>014-019>023-221600-
NORTHEAST ILLINOIS

CITY           SKY/WX    TMP DP  RH WIND       PRES   REMARKS
CHICAGO-OHARE  CLOUDY    78  74  87 SW5       29.94R HX  81
CHICAGO-MIDWAY CLOUDY    79  75  87 S7        29.95R HX  83
AURORA         CLOUDY    79  71  76 SW10      29.97R HX  82
LANSING*       CLOUDY    76  73  89 SW9       29.97R
JOLIET*        CLOUDY    76  71  83 SW5       29.97R
WAUKEGAN       PTSUNNY   76  72  87 CALM      29.95R
DUPAGE AIRPORT PTSUNNY   80  74  81 SW9       29.94S HX  85
KANKAKEE*      CLOUDY    75  73  91 SW8       29.97R
WHEELING       CLOUDY    79  74  84 SE3       29.96R HX  82
MORRIS*        CLOUDY    77  74  88 W7        29.96R
ROMEOVILLE*    PTSUNNY   77  73  88 SW6       29.97R
NORTHERLY ISL    N/A     77  72  84 S2          N/A
$$

LMZ740>746-221600-
SOUTHERN LAKE MICHIGAN

STATION/POSITION SKY/WX   TEMP    WIND        PRES    VSBY  WAVE
                          AIR SEA DIR/SP/G                  HT/PER
                          (F)     (DEG/KT/KT) (MB)    (MI)  (FT/S)
SOUTHERN BUOY              70 69  140/  4/  6 1014.1F
WAUKEGAN HARBOR            72      CALM  /  2   N/A
HARRISON CRIB              74     160/  7/  9   N/A
BURNHAM HARBOR             77     180/  3/  7   N/A
CALUMET HARBOR             76     210/  4/  7 1013.0R
MICHIGAN CITY              75     180/ 10/ 12   N/A
MICHIGAN CITY 6N           74 71  190/  4/  6   N/A           1
ST. JOSEPH                 73 71  170/  4/  4   N/A           1
$$

ILZ025>027-034>036-040-047-049-050-058-095>099-221600-
WEST-CENTRAL ILLINOIS

CITY           SKY/WX    TMP DP  RH WIND       PRES   REMARKS
QUINCY         LGT RAIN  77  73  87 S8        29.95F
GALESBURG*     CLOUDY    74  74  99 CALM      29.99R FOG
MACOMB*        CLOUDY    75  75 100 SE3       29.98R
JACKSONVILLE*  CLOUDY    82  74  78 S5        29.99F HX  87
PITTSFIELD*    CLOUDY    81  73  78 S6        29.99S HX  85
$$

ILZ028>032-037-038-041>044-048-051>054-059>061-221600-
CENTRAL ILLINOIS

CITY           SKY/WX    TMP DP  RH WIND       PRES   REMARKS
PONTIAC        CLOUDY    73  73 100 SW5       29.98R
DECATUR        TSTM      75  72  90 W7        30.04F
PEORIA         LGT RAIN  74  71  91 SE5       29.99R FOG
LACON*         TSTM      73  70  92 NW7       30.02R
LINCOLN*       CLOUDY    73  72  95 E6        29.98F
SPRINGFIELD    CLOUDY    80  73  79 E8        30.01R HX  84
TAYLORVILLE    PTSUNNY   77  72  83 CALM      30.04R
$$

ILZ033-039-045-046-055>057-062-063-221600-
EAST-CENTRAL ILLINOIS

CITY           SKY/WX    TMP DP  RH WIND       PRES   REMARKS
CHAMPAIGN      LGT RAIN  73  72  96 SW8       30.01F
DANVILLE*      RAIN      73  72  96 SW3       29.98R
RANTOUL*       TSTM      74  70  88 CALM      30.01F
MATTOON        CLOUDY    78  73  84 N8        30.02S HX  81
PARIS*         CLOUDY    77  74  90 CALM      30.03R
$$

ILZ079-100>102-221600-
SOUTHWEST ILLINOIS

CITY           SKY/WX    TMP DP  RH WIND       PRES   REMARKS
ALTON          PTSUNNY   81  77  89 VRB5      30.01F HX  88
BELLEVILLE     SUNNY     83  75  77 VRB2      30.00F HX  91
CAHOKIA*       SUNNY     87  74  64 W5        30.00F HX  95
SPARTA*        SUNNY     82  74  77 S6        30.04S HX  87
$$

ILZ064>066-069>071-074>076-080>082-084>086-088>090-092>094-221600-
SOUTH-CENTRAL ILLINOIS

CITY           SKY/WX    TMP DP  RH WIND       PRES   REMARKS
CARBONDALE     MOSUNNY   83  74  74 SW7       30.04S HX  89
CAIRO*         MOSUNNY   86  76  73 SW5       30.06R HX  95
MARION         CLOUDY    82  75  78 SW8       30.06R HX  89
MT. VERNON     PTSUNNY   81  73  78 SW9       30.04F HX  85
CENTRALIA*     PTSUNNY   88  73  61 SW6       30.03F HX  95
SALEM*         PTSUNNY   82  75  79 SW6       30.03F HX  89
METROPOLIS*    MOSUNNY   84  72  67 SW5       30.06S HX  89
$$

ILZ067-068-072-073-078-083-087-091-221600-
SOUTHEAST ILLINOIS

CITY           SKY/WX    TMP DP  RH WIND       PRES   REMARKS
LAWRENCEVILLE  PTSUNNY   82  74  76 W5        30.03R HX  88
FLORA*         PTSUNNY   79  74  83 SW6       30.03F HX  83
FAIRFIELD*     PTSUNNY   81  77  89 SW6       30.04S HX  88
HARRISBURG*    PTSUNNY   83  76  79 SW7       30.06S HX  90
ROBINSON*      CLOUDY    81  76  84 W3        30.03F HX  87
CARMI*         PTSUNNY   84  79  84 W8        30.04S HX  96
$$

ABBREVIATIONS USED IN REMARKS
   TC - TEMPERATURE IN CELSIUS
  WCI - WIND CHILL INDEX
   HX - HEAT INDEX
  VSB - VISIBILITY
$$




USA.gov is the U.S. government's official web portal to all federal, state and local government web resources and services.